TimeMDT,TemperatureF,Dew PointF,Humidity,Sea Level PressureIn,VisibilityMPH,Wind Direction,Wind SpeedMPH,Gust SpeedMPH,PrecipitationIn,Events,Conditions,WindDirDegrees,DateUTC
12:16 AM,64.4,42.8,45,30.01,10.0,SSW,16.1,21.9,N/A,,Mostly Cloudy,200,2013-05-15 06:16:00
12:36 AM,64.4,42.8,45,30.01,10.0,South,13.8,-,N/A,,Mostly Cloudy,190,2013-05-15 06:36:00
12:56 AM,62.6,42.8,48,30.01,10.0,South,15.0,-,N/A,,Scattered Clouds,190,2013-05-15 06:56:00
1:15 AM,62.6,42.8,48,30.00,10.0,South,13.8,-,N/A,,Clear,190,2013-05-15 07:15:00
1:35 AM,60.8,44.6,55,29.99,10.0,South,10.4,-,N/A,,Clear,190,2013-05-15 07:35:00
1:56 AM,60.8,44.6,55,29.98,10.0,SSW,15.0,-,N/A,,Clear,200,2013-05-15 07:56:00
2:16 AM,60.8,42.8,52,29.98,10.0,SSW,15.0,-,N/A,,Clear,210,2013-05-15 08:16:00
2:36 AM,62.6,42.8,48,29.97,10.0,SW,12.7,-,N/A,,Clear,220,2013-05-15 08:36:00
2:56 AM,60.8,42.8,52,29.98,10.0,South,9.2,-,N/A,,Clear,190,2013-05-15 08:56:00
3:16 AM,62.6,42.8,48,29.98,10.0,South,6.9,-,N/A,,Clear,180,2013-05-15 09:16:00
3:36 AM,62.6,42.8,48,29.97,10.0,South,8.1,-,N/A,,Clear,190,2013-05-15 09:36:00
3:56 AM,62.6,41.0,45,29.97,10.0,SSW,10.4,-,N/A,,Clear,210,2013-05-15 09:56:00
4:16 AM,59.0,42.8,55,29.97,10.0,SSW,11.5,-,N/A,,Clear,200,2013-05-15 10:16:00
4:36 AM,59.0,42.8,55,29.97,10.0,South,9.2,-,N/A,,Clear,190,2013-05-15 10:36:00
4:55 AM,60.8,41.0,48,29.97,10.0,SW,11.5,-,N/A,,Clear,220,2013-05-15 10:55:00
5:15 AM,60.8,42.8,52,29.97,10.0,South,8.1,-,N/A,,Clear,190,2013-05-15 11:15:00
5:36 AM,62.6,41.0,45,29.96,10.0,SSW,12.7,-,N/A,,Clear,210,2013-05-15 11:36:00
5:56 AM,62.6,41.0,45,29.97,10.0,SW,11.5,-,N/A,,Clear,220,2013-05-15 11:56:00
6:16 AM,62.6,41.0,45,29.98,10.0,SSW,9.2,-,N/A,,Clear,210,2013-05-15 12:16:00
6:36 AM,62.6,41.0,45,29.98,10.0,SW,9.2,-,N/A,,Clear,220,2013-05-15 12:36:00
6:52 AM,62.6,42.8,48,29.99,10.0,South,6.9,-,N/A,,Clear,180,2013-05-15 12:52:00
7:50 AM,64.4,44.6,49,30.01,50.0,SW,6.9,-,N/A,,Mostly Cloudy,230,2013-05-15 13:50:00
8:48 AM,68.0,44.6,43,30.03,50.0,WNW,5.8,-,N/A,,Mostly Cloudy,290,2013-05-15 14:48:00
9:50 AM,71.6,44.6,38,30.02,50.0,Calm,Calm,-,N/A,,Mostly Cloudy,0,2013-05-15 15:50:00
10:47 AM,75.2,41.0,29,30.02,50.0,SSW,3.5,-,N/A,,Mostly Cloudy,200,2013-05-15 16:47:00
11:48 AM,77.0,41.0,28,30.01,50.0,Calm,Calm,-,N/A,,Mostly Cloudy,0,2013-05-15 17:48:00
1:48 PM,80.6,44.6,28,29.96,50.0,ESE,9.2,-,N/A,Thunderstorm,Mostly Cloudy,110,2013-05-15 19:48:00
2:48 PM,80.6,42.8,26,29.95,40.0,NE,5.8,-,N/A,Thunderstorm,Mostly Cloudy,40,2013-05-15 20:48:00
3:48 PM,77.0,44.6,32,29.93,50.0,ESE,5.8,-,N/A,Thunderstorm,Mostly Cloudy,110,2013-05-15 21:48:00
4:47 PM,73.4,44.6,36,29.95,50.0,SW,16.1,-,N/A,Thunderstorm,Mostly Cloudy,230,2013-05-15 22:47:00
5:47 PM,64.4,48.2,56,29.99,50.0,WNW,38.0,-,N/A,Rain-Thunderstorm,Light Thunderstorms and Rain,300,2013-05-15 23:47:00
6:47 PM,59.0,51.8,77,30.01,50.0,NE,11.5,-,N/A,Thunderstorm,Overcast,40,2013-05-16 00:47:00
7:50 PM,59.0,51.8,77,30.03,50.0,SSW,8.1,-,N/A,Rain,Light Rain,200,2013-05-16 01:50:00
8:55 PM,59.0,51.8,77,30.04,10.0,NNE,9.2,-,N/A,,Overcast,30,2013-05-16 02:55:00
9:17 PM,57.2,51.8,82,30.04,10.0,NNE,5.8,-,N/A,,Overcast,20,2013-05-16 03:17:00
9:37 PM,55.4,53.6,94,30.05,10.0,ENE,8.1,-,N/A,,Light Drizzle,60,2013-05-16 03:37:00
9:56 PM,55.4,53.6,94,30.04,10.0,ESE,9.2,-,N/A,,Mostly Cloudy,120,2013-05-16 03:56:00
10:15 PM,55.4,51.8,88,30.03,10.0,ESE,9.2,-,N/A,,Mostly Cloudy,120,2013-05-16 04:15:00
10:35 PM,55.4,51.8,88,30.03,10.0,SE,8.1,-,N/A,,Mostly Cloudy,140,2013-05-16 04:35:00
10:56 PM,55.4,51.8,88,30.02,10.0,SSE,4.6,-,N/A,,Scattered Clouds,160,2013-05-16 04:56:00
11:15 PM,55.4,51.8,88,30.00,10.0,SSE,6.9,-,N/A,,Clear,150,2013-05-16 05:15:00
11:35 PM,55.4,51.8,88,29.99,10.0,SSE,6.9,-,N/A,,Clear,150,2013-05-16 05:35:00
11:56 PM,55.4,51.8,88,29.97,10.0,SSE,8.1,-,N/A,,Clear,160,2013-05-16 05:56:00